Cloud_Cover
72 58 56 65 20 65 65 74 90 21 4 0 0 0 0 0 0 0 0 0 0 0 0 0 0 0 0 0 0 0 0 0 0 0 0 0 0 0 0 0 32 34 100 99 4
100 100 97 100 100 100 100 100 80 88 81 46 7 0 0 0 0 0 0 0 0 0 0 0 0 0 0 0 0 0 0 0 0 0 0 0 0 0 0 0 0 6 68 5 3
76 83 99 89 100 100 100 100 98 100 100 80 55 2 0 1 0 0 0 0 0 0 0 0 0 0 0 0 0 0 0 0 0 0 0 0 0 0 0 0 0 3 18 5 1
2 15 70 100 100 100 100 100 100 100 100 100 17 3 1 18 0 0 0 0 0 0 0 0 0 0 0 0 0 0 0 0 0 0 0 0 0 0 0 0 0 2 93 8 0
20 100 59 19 96 100 100 100 100 100 72 20 10 0 2 1 1 0 0 0 0 0 0 5 2 0 0 0 0 0 0 0 0 0 0 0 0 0 0 0 0 0 77 100 0
0 27 44 48 37 94 100 83 29 11 7 2 0 0 1 23 0 0 0 0 0 0 3 4 4 1 0 0 0 0 0 0 0 0 0 0 0 0 0 0 0 0 0 24 0
0 0 100 100 100 92 100 100 1 0 0 0 0 0 0 0 0 0 0 0 0 0 0 4 2 2 0 0 0 0 0 0 0 0 0 0 0 0 0 0 0 0 0 10 92
0 0 0 36 79 71 88 92 14 4 0 0 0 0 4 0 0 0 0 0 4 0 0 0 1 0 0 0 0 0 0 0 0 0 0 4 0 0 0 0 0 0 0 0 73
23 0 0 24 16 10 19 1 3 0 0 0 0 0 13 0 2 1 0 0 0 0 0 0 2 0 4 5 3 4 4 1 0 0 0 0 0 0 0 0 0 0 0 0 0
9 0 0 2 2 0 0 2 3 9 0 0 0 1 6 4 4 0 0 0 0 5 12 7 5 5 20 12 74 79 90 89 12 1 0 0 0 1 0 0 0 0 0 0 0
3 0 0 0 0 0 4 0 0 2 0 2 4 2 4 2 2 11 5 3 4 8 23 93 40 59 90 99 28 100 79 15 5 2 66 0 4 4 1 0 0 0 0 0 0
0 0 0 0 2 0 4 0 0 0 0 4 0 3 4 4 26 47 12 4 63 72 63 79 67 54 95 88 100 13 82 100 88 5 94 94 20 0 2 2 0 0 0 0 0
1 0 0 0 1 22 0 0 0 0 0 10 3 3 4 2 14 100 60 71 88 98 56 84 89 10 5 32 56 97 82 100 64 32 10 7 100 27 1 4 14 0 0 0 0
0 0 0 2 50 0 0 0 0 0 33 5 35 88 4 82 15 40 19 9 74 70 90 99 100 53 45 94 56 13 91 98 100 7 100 41 58 100 2 92 5 1 0 0 0
0 0 0 23 0 0 0 0 0 0 95 0 28 0 5 100 58 90 6 5 62 100 100 98 100 72 99 100 74 100 100 99 34 50 100 87 95 98 2 0 3 0 0 0 0
0 0 2 0 0 0 0 0 2 25 2 28 2 0 5 80 78 65 100 36 80 49 86 100 97 27 35 90 77 100 100 100 41 16 92 96 100 1 89 0 1 0 0 0 0
0 0 0 0 0 0 0 7 13 2 0 0 0 3 65 97 5 100 91 100 100 97 100 100 100 100 100 91 95 100 100 100 100 52 8 0 94 45 0 0 0 0 0 0 0
0 0 0 0 0 0 0 3 39 0 0 0 0 5 81 46 48 100 81 68 100 100 100 100 100 100 100 90 88 99 100 100 100 92 85 91 100 0 60 1 0 0 0 0 0
0 0 0 0 0 0 2 0 0 0 0 0 1 5 49 66 90 100 100 100 63 100 100 100 100 100 100 100 18 89 100 100 100 100 26 98 60 98 100 100 7 0 0 0 0
0 0 0 0 0 0 2 0 0 0 0 0 5 5 53 100 72 96 84 99 100 100 100 100 100 100 100 100 17 50 100 89 100 100 97 96 83 96 20 100 65 0 0 0 0
0 0 0 0 0 0 1 5 5 3 2 5 0 5 35 86 82 100 97 86 100 99 80 100 95 100 100 89 69 80 100 100 100 100 100 100 98 33 90 66 10 0 0 0 0
0 0 0 0 1 4 0 5 5 5 5 3 3 3 4 46 69 70 100 100 97 100 100 76 100 57 12 78 93 92 5 100 81 100 9 100 100 100 98 0 0 5 3 0 0
0 0 0 0 0 4 5 48 41 31 61 56 5 5 12 88 100 87 100 100 100 100 100 100 99 100 100 100 73 50 8 16 88 65 4 99 100 100 100 70 90 32 100 2 2
0 0 5 5 5 3 5 86 100 100 92 14 5 6 67 28 52 52 93 79 100 100 100 100 100 100 100 100 100 87 8 18 4 39 35 13 99 100 51 100 96 100 100 7 9
0 0 0 0 4 69 91 100 100 100 99 62 35 5 13 7 44 50 77 100 80 100 100 100 100 100 100 100 100 100 100 65 47 5 79 2 100 100 100 86 74 100 96 89 92
5 2 2 74 6 70 100 100 100 100 100 100 100 10 12 60 97 19 72 100 48 81 100 100 100 100 100 100 100 100 100 100 21 62 3 0 100 100 100 6 50 74 89 87 1
0 0 2 5 24 100 100 100 100 100 100 100 100 50 72 26 5 23 54 72 85 100 100 100 100 100 100 100 100 100 100 100 76 78 0 0 24 100 100 79 100 100 2 90 21